White Plains, CT

7:34 PM EDT on October 21, 2019 (GMT -0400)
Westchester County

Weather History for KHPN - August, 2019

Change the Weather History Date:

Sunday, August 25, 2019

  Actual Average Record
Temperature  
Mean Temperature 65 °F -  
Max Temperature 75 °F 77 °F 92 °F (1993)
Min Temperature 57 °F 60 °F 49 °F (1987)
Growing Degree Days 15 (Base 50)    
Moisture  
Dew Point 55 °F    
Average Humidity 68    
Maximum Humidity 90    
Minimum Humidity 45    
Precipitation  
Precipitation 0.04 in - - ()
Sea Level Pressure  
Sea Level Pressure 30.25 in    
Wind  
Wind Speed 5 mph ()    
Max Wind Speed 12 mph    
Max Gust Speed 20 mph    
Visibility 10.0 miles    
Events Rain    
Averages and records for this station are not official NWS values.
T = Trace of Precipitation, MM = Missing Value Source: Averaged Metar Reports

Daily Weather History Graph

Daily Weather History Graph

Search for Another Location

Airport or City:

Astronomy

Aug. 25, 2019 Rise Set
Actual Time 6:14 AM EDT 7:38 PM EDT
Civil Twilight 5:45 AM EDT 8:07 PM EDT
Nautical Twilight 5:10 AM EDT 8:42 PM EDT
Astronomical Twilight 4:34 AM EDT 9:18 PM EDT
Moon 12:45 AM EDT (8/25) 3:58 PM EDT (8/25)
Length of Visible Light 14h 22m
Length of Day
13h 24m
Waning Crescent, 29% of the Moon is Illuminated
Aug 25
Waning Crescent
Aug 30
New
Sep 5
First Quarter
Sep 14
Full
Sep 21
Last Quarter

Hourly Weather History & Observations

Time (EDT) Temp. Dew Point Humidity Pressure Visibility Wind Dir Wind Speed Gust Speed Precip Events Conditions
12:56 AM 63.0 °F 57.9 °F 84% 30.25 in 10.0 mi Calm Calm - 0.00 in Rain Light Rain
1:56 AM 63.0 °F 59.0 °F 87% 30.25 in 10.0 mi NE 4.6 mph - 0.04 in   Overcast
2:56 AM 61.0 °F 57.0 °F 87% 30.24 in 10.0 mi NE 3.5 mph - N/A   Scattered Clouds
3:56 AM 60.1 °F 55.0 °F 83% 30.24 in 10.0 mi Variable 4.6 mph - N/A   Scattered Clouds
4:56 AM 57.9 °F 55.0 °F 90% 30.25 in 10.0 mi East 3.5 mph - N/A   Partly Cloudy
5:56 AM 59.0 °F 55.0 °F 87% 30.25 in 10.0 mi ENE 6.9 mph - N/A   Partly Cloudy
6:56 AM 60.1 °F 55.0 °F 83% 30.25 in 10.0 mi NE 5.8 mph - N/A   Partly Cloudy
7:56 AM 62.1 °F 55.9 °F 80% 30.27 in 10.0 mi NE 4.6 mph - N/A   Partly Cloudy
8:56 AM 64.9 °F 55.9 °F 73% 30.28 in 10.0 mi NE 11.5 mph 19.6 mph N/A   Partly Cloudy
9:56 AM 68.0 °F 55.0 °F 63% 30.28 in 10.0 mi NE 11.5 mph 19.6 mph N/A   Scattered Clouds
10:56 AM 70.0 °F 53.1 °F 55% 30.27 in 10.0 mi ENE 11.5 mph - N/A   Scattered Clouds
11:56 AM 69.1 °F 51.1 °F 53% 30.27 in 10.0 mi NE 11.5 mph - N/A   Scattered Clouds
12:56 PM 73.0 °F 51.1 °F 46% 30.26 in 10.0 mi ENE 10.4 mph - N/A   Scattered Clouds
1:56 PM 73.9 °F 51.1 °F 45% 30.25 in 10.0 mi East 9.2 mph - N/A   Scattered Clouds
2:56 PM 73.9 °F 52.0 °F 46% 30.23 in 10.0 mi East 8.1 mph 17.3 mph N/A   Scattered Clouds
3:56 PM 73.0 °F 52.0 °F 48% 30.22 in 10.0 mi ENE 8.1 mph - N/A   Scattered Clouds
4:56 PM 72.0 °F 52.0 °F 49% 30.22 in 10.0 mi ENE 9.2 mph 18.4 mph N/A   Partly Cloudy
5:56 PM 71.1 °F 53.1 °F 53% 30.22 in 10.0 mi ENE 5.8 mph - N/A   Scattered Clouds
6:56 PM 70.0 °F 53.1 °F 55% 30.22 in 10.0 mi Calm Calm - N/A   Scattered Clouds
7:56 PM 66.9 °F 55.9 °F 68% 30.23 in 10.0 mi East 3.5 mph - N/A   Overcast
8:56 PM 66.9 °F 57.0 °F 70% 30.24 in 10.0 mi Variable 5.8 mph - N/A   Mostly Cloudy
9:56 PM 64.9 °F 57.9 °F 78% 30.24 in 10.0 mi NE 4.6 mph - N/A   Mostly Cloudy
10:56 PM 63.0 °F 55.0 °F 75% 30.24 in 10.0 mi ENE 5.8 mph - N/A   Clear